Lexington Weather

Lexington, Massachusetts, USA

57°F
6/23/2021 1:48am 
  • Lexington Conditions: Overcast
  • Temperature: 56.8°F / 13.8°CColder 2.2°F than last hour.
  • Dew Point: 55.2°FDecreased 2.4°Fsince last hour.
  • Relative Humidity: 94%Decreased 1.0% since last hour.
  • Wind: Wind from NNE NNE 1 mph, 10-min avg: Calm, gust: 2 mph
  • Barometer: 29.83 inRising 0.02  inHg/hr Rising Slowly
  • Visibility: 10 miles
  • Rain Today: 0.00 in
  •   

Regional Weather Roundup
for Boston / Norton, MA

        
000
ASUS41 KBOX 172204
RWRBOX

REGIONAL WEATHER ROUNDUP
NATIONAL WEATHER SERVICE BOSTON/NORTON MA
600 PM EDT THU JUN 17 2021

NOTE:  "FAIR" INDICATES FEW OR NO CLOUDS BELOW 12,000 FEET WITH NO 
SIGNIFICANT WEATHER AND/OR OBSTRUCTIONS TO VISIBILITY.

MAZALL-172300-
EASTERN MASSACHUSETTS
  
CITY           SKY/WX    TMP DP  RH WIND       PRES   REMARKS
BOSTON         PTSUNNY   79  42  26 W10       29.89S                  
BEVERLY        LGT RAIN  72  51  47 SE10      29.88S                  
LAWRENCE       SUNNY     76  42  29 W7        29.90S                  
BEDFORD        MOSUNNY   76  44  32 NW9       29.88S                  
BLUE HILL        N/A     73  45  36 W6        29.90S                  
NORWOOD        PTSUNNY   76  45  33 W5        29.89S                  
MARSHFIELD     SUNNY     73  48  40 SE8       29.90S                  
PLYMOUTH       MOSUNNY   74  47  38 SW10      29.90S                  
TAUNTON        MOSUNNY   74  46  36 SW9       29.90R                  
NEW BEDFORD    SUNNY     71  47  42 SW15      29.91R                  
$$

MAZALL-172300-
CAPE COD AND THE ISLANDS
  
CITY           SKY/WX    TMP DP  RH WIND       PRES   REMARKS
FALMOUTH       SUNNY     70  43  37 SW17      29.92S                  
HYANNIS        SUNNY     71  45  39 SW14      29.91S                  
CHATHAM        SUNNY     68  49  50 VRB7      29.95R                  
PROVINCETOWN   SUNNY     71  51  49 S10       29.92S                  
NANTUCKET      SUNNY     68  55  63 SW8       29.94S                  
MARTHAS VNYRD  SUNNY     69  49  48 W10       29.94S                  
$$
 
MAZALL-172300-
CENTRAL AND WESTERN MASSACHUSETTS
  
CITY           SKY/WX    TMP DP  RH WIND       PRES   REMARKS
WORCESTER      SUNNY     73  41  31 VRB5      29.94R                  
FITCHBURG      SUNNY     77  41  27 N9        29.91S                  
ORANGE         MOSUNNY   74  42  31 W7        29.93R                  
SPRINGFIELD    MOSUNNY   76  39  25 NW7       29.91R                  
WESTFIELD      SUNNY     76  42  29 W10       29.92R                  
NORTH ADAMS    SUNNY     73  43  33 W12G17    29.93S                  
PITTSFIELD     SUNNY     70  42  36 W12       29.94S                  
$$
 
RIZALL-172300-
RHODE ISLAND
  
CITY           SKY/WX    TMP DP  RH WIND       PRES   REMARKS
PROVIDENCE     MOSUNNY   74  50  42 S9        29.92R                  
NEWPORT        SUNNY     68  48  48 S12       29.93S                  
BLOCK ISLAND   SUNNY     68  52  56 SW17      29.95S                  
SMITHFIELD     SUNNY     74  44  34 NW6       29.93R                  
WESTERLY       SUNNY     69  47  45 SW9       29.93S                  
$$
 
CTZALL-172300-
CONNECTICUT
  
CITY           SKY/WX    TMP DP  RH WIND       PRES   REMARKS
BRADLEY INTL   MOSUNNY   77  42  28 NW8       29.92S                  
HARTFORD       MOSUNNY   77  41  27 VRB5      29.92S                  
BRIDGEPORT     SUNNY     75  45  34 SW13      29.94R                  
DANBURY        SUNNY     77  39  25 VRB3      29.96S                  
GROTON         SUNNY     71  45  39 W10       29.92F                  
NEW HAVEN      SUNNY     74  46  36 SW13      29.94S                  
CHESTER        FAIR      75  43  31 S8        29.94S                  
MERIDEN        SUNNY     77  39  25 VRB7      29.93S                  
WILLIMANTIC    SUNNY     76  40  27 NW6       29.92S                  
OXFORD         SUNNY     73  43  33 NW6       29.96S                  
$$

MEZ002-015-021-024-NHZ003-005-008-011-012-014-VTZ005-008-172300-
NORTHERN NEW ENGLAND
  
CITY           SKY/WX    TMP DP  RH WIND       PRES   REMARKS
PORTLAND ME    MOSUNNY   70  49  47 S9        29.87R                  
BANGOR ME      PTSUNNY   71  44  37 W6        29.85R                  
CONCORD NH     MOSUNNY   76  41  28 NW7       29.89R                  
MANCHESTER NH  MOSUNNY   78  38  23 SW8       29.88R                  
NASHUA NH      MOSUNNY   76  41  28 NW9       29.90S                  
PORTSMOUTH NH  MOSUNNY   77  31  19 NW8       29.88S                  
JAFFREY NH     MOSUNNY   73  40  30 W9        29.93R                  
KEENE NH       MOSUNNY   74  42  31 NW10      29.91S                  
BURLINGTON VT  MOSUNNY   77  37  23 N8        29.88S                  
MT. WASHINGTON MOSUNNY   45  34  65 NW24G37     N/A                   
$$

NYZ052-076-172300-
EASTERN NEW YORK
  
CITY           SKY/WX    TMP DP  RH WIND       PRES   REMARKS
ALBANY         MOSUNNY   72  43  35 W12       29.93S                  
NEW YORK CITY  MOSUNNY   78  36  21 CALM      29.94S                  
$$
 
ANZALL-172300-
MARINE OBSERVATIONS
  
STATION/POSITION TIME  TEMP    WIND        PRES    VSBY  WAVE
                       AIR SEA DIR/SP/G                  HT/PER
                 (UTC) (F)     (DEG/KT/KT) (MB)    (MI)  (FT/S)
BOSTON BUOY      2140   64 62  160/ 12/ 14 1012.5R
BUZZARDS BAY     2100          210/ 16/ 17 1014.3F
NANTUCKET SOUND  2140      66                N/A
MASS BAY-STELLWA 2104      63                N/A           4/11
ISLE OF SHOALS   2100   65     170/ 19/ 21 1011.3S
S OF BLOCK IS    2126      65                N/A           3/ 8
$$

......................KEY.........................
  SKY/WX - SKY CONDITION/PRESENT WEATHER
  TMP    - TEMPERATURE IN FAHRENHEIT
  DWPT   - DEWPOINT IN FAHRENHEIT
  RH     - RELATIVE HUMIDITY IN PERCENT
  WIND   - DIRECTION AND SPEED IN MPH
  PRES   - MEAN SEA LEVEL PRESSURE IN INCHES OF HG
  WCI    - WIND CHILL INDEX
  VSB    - VISIBILITY IN MILES
  HX     - HEAT INDEX
  TC     - TEMPERATURE IN CELSIUS
  VRB    - VARIABLE WIND DIRECTION
  N/A    - NOT AVAILABLE
  
      

Other recent Regional Weather Roundups

Wed Jun 23, 1:05am

Wed Jun 23, 12:04am

Tue Jun 22, 11:04pm

Tue Jun 22, 10:04pm

Tue Jun 22, 9:05pm

Tue Jun 22, 8:04pm

Tue Jun 22, 7:05pm

Tue Jun 22, 6:04pm

Tue Jun 22, 5:04pm

Tue Jun 22, 4:04pm

Tue Jun 22, 3:05pm

Tue Jun 22, 2:05pm

Tue Jun 22, 1:04pm

Tue Jun 22, 12:04pm

Tue Jun 22, 11:04am

Tue Jun 22, 10:04am

Tue Jun 22, 9:04am

Tue Jun 22, 8:05am

Tue Jun 22, 7:04am

Tue Jun 22, 6:04am

Tue Jun 22, 5:04am

Tue Jun 22, 4:04am

Tue Jun 22, 3:04am

Tue Jun 22, 2:04am

Tue Jun 22, 1:04am

Tue Jun 22, 12:04am

Mon Jun 21, 11:04pm

Mon Jun 21, 10:04pm

Mon Jun 21, 9:05pm

Mon Jun 21, 8:04pm

Mon Jun 21, 7:04pm

Mon Jun 21, 6:04pm

Mon Jun 21, 5:04pm

Mon Jun 21, 4:04pm

Mon Jun 21, 3:04pm

Mon Jun 21, 2:04pm

Mon Jun 21, 1:04pm

Mon Jun 21, 12:04pm

Mon Jun 21, 11:04am

Mon Jun 21, 10:04am

Mon Jun 21, 9:04am

Mon Jun 21, 8:04am

Mon Jun 21, 7:04am

Mon Jun 21, 6:04am

Mon Jun 21, 5:04am

Mon Jun 21, 4:04am

Mon Jun 21, 3:04am

Mon Jun 21, 2:04am

Mon Jun 21, 1:04am

Mon Jun 21, 12:04am

Sun Jun 20, 11:04pm

Sun Jun 20, 10:04pm

Sun Jun 20, 9:04pm

Sun Jun 20, 8:04pm

Sun Jun 20, 7:04pm

Sun Jun 20, 6:04pm

Sun Jun 20, 5:04pm

Sun Jun 20, 4:04pm

Sun Jun 20, 3:04pm

Sun Jun 20, 2:04pm

Sun Jun 20, 1:05pm

Sun Jun 20, 12:04pm

Sun Jun 20, 11:04am

Sun Jun 20, 10:04am

Sun Jun 20, 9:04am

Sun Jun 20, 8:04am

Sun Jun 20, 7:04am

Sun Jun 20, 6:04am

Sun Jun 20, 5:04am

Sun Jun 20, 4:04am

Sun Jun 20, 3:04am

Sun Jun 20, 2:04am

Sun Jun 20, 1:04am

Sun Jun 20, 12:05am

Sat Jun 19, 11:04pm

Sat Jun 19, 10:04pm

Sat Jun 19, 9:05pm

Sat Jun 19, 8:04pm

Sat Jun 19, 7:04pm

Sat Jun 19, 6:04pm

Sat Jun 19, 5:04pm

Sat Jun 19, 4:04pm

Sat Jun 19, 3:04pm

Sat Jun 19, 2:04pm

Sat Jun 19, 1:04pm

Sat Jun 19, 12:04pm

Sat Jun 19, 11:04am

Sat Jun 19, 10:04am

Sat Jun 19, 9:04am

Sat Jun 19, 8:04am

Sat Jun 19, 7:04am

Sat Jun 19, 6:04am

Sat Jun 19, 5:04am

Sat Jun 19, 4:04am

Sat Jun 19, 3:04am

Sat Jun 19, 2:04am

Sat Jun 19, 1:04am

Sat Jun 19, 12:04am

Fri Jun 18, 11:05pm

Fri Jun 18, 10:04pm

Fri Jun 18, 9:04pm

Fri Jun 18, 8:04pm

Fri Jun 18, 7:04pm

Fri Jun 18, 6:04pm

Fri Jun 18, 5:04pm

Fri Jun 18, 4:04pm

Fri Jun 18, 3:04pm

Fri Jun 18, 2:04pm

Fri Jun 18, 1:05pm

Fri Jun 18, 12:04pm

Fri Jun 18, 11:04am

Fri Jun 18, 10:05am

Fri Jun 18, 9:04am

Fri Jun 18, 8:04am

Fri Jun 18, 7:04am

Fri Jun 18, 6:04am

Fri Jun 18, 5:04am

Fri Jun 18, 4:04am

Fri Jun 18, 3:04am

Fri Jun 18, 2:04am

Fri Jun 18, 1:04am

Fri Jun 18, 12:04am

Thu Jun 17, 11:04pm

Thu Jun 17, 10:04pm

Thu Jun 17, 9:04pm

Thu Jun 17, 8:04pm

Thu Jun 17, 7:04pm

Thu Jun 17, 5:04pm

Thu Jun 17, 4:04pm

Thu Jun 17, 3:04pm

Thu Jun 17, 2:04pm

Thu Jun 17, 1:05pm

Thu Jun 17, 12:04pm

Thu Jun 17, 11:04am

Thu Jun 17, 10:05am

Thu Jun 17, 9:04am

Thu Jun 17, 8:04am

Thu Jun 17, 7:04am

Thu Jun 17, 6:04am

Thu Jun 17, 5:04am

Thu Jun 17, 4:04am

Thu Jun 17, 3:04am

Thu Jun 17, 2:04am

Thu Jun 17, 1:04am

Thu Jun 17, 12:04am

Wed Jun 16, 11:04pm

Wed Jun 16, 10:04pm

Wed Jun 16, 9:04pm

Wed Jun 16, 8:04pm

Wed Jun 16, 7:04pm

Wed Jun 16, 6:04pm

Wed Jun 16, 5:04pm

Wed Jun 16, 4:04pm

Wed Jun 16, 3:04pm

Wed Jun 16, 2:04pm

Wed Jun 16, 1:04pm

Wed Jun 16, 12:04pm

Wed Jun 16, 11:04am

Wed Jun 16, 10:04am

Wed Jun 16, 9:04am

Wed Jun 16, 8:04am

Wed Jun 16, 7:04am

Wed Jun 16, 6:04am

Wed Jun 16, 5:04am

Wed Jun 16, 4:04am

Wed Jun 16, 3:04am

Wed Jun 16, 2:04am

Meta data:

ID: 3e5bbd29-c0c8-4432-875d-308662358d0b
Link: https://api.weather.gov/products/3e5bbd29-c0c8-4432-875d-308662358d0b